Weather History for KS25 - September, 2013

Change the Weather History Date:

Tuesday, September 17, 2013

  Actual Average (KISN) Record (KISN)
Temperature  
Mean Temperature 70 °F 56 °F  
Max Temperature 87 °F 71 °F 96 °F (2000)
Min Temperature 53 °F 41 °F 18 °F (1902)
Degree Days  
Heating Degree Days 0 10  
Month to date heating degree days 112  
Since 1 July heating degree days 183  
Cooling Degree Days 5 1  
Month to date cooling degree days 24  
Year to date cooling degree days 453  
Growing Degree Days 20 (Base 50)    
Moisture  
Dew Point 55 °F    
Average Humidity 63    
Maximum Humidity 88    
Minimum Humidity 33    
Precipitation  
Precipitation 0.00 in 0.03 in 0.51 in (1977)
Month to date precipitation 0.61  
Year to date precipitation 11.73  
Sea Level Pressure  
Sea Level Pressure 29.70 in    
Wind  
Wind Speed 9 mph (South)    
Max Wind Speed 15 mph    
Max Gust Speed 25 mph    
Visibility 10 miles    
Events      
T = Trace of Precipitation, MM = Missing Value Source: NWS Daily Summary

Daily Weather History Graph

Daily Weather History Graph

Search for Another Location

Airport or City:

Trip Planner

Search our weather history database for the weather conditions in past years. The results will help you decide how hot, cold, wet, or windy it might be!

Date:

Astronomy

Sep. 17, 2013 Rise Set
Actual Time 7:33 AM CDT 8:00 PM CDT
Civil Twilight 7:02 AM CDT 8:31 PM CDT
Nautical Twilight 6:25 AM CDT 9:08 PM CDT
Astronomical Twilight 5:47 AM CDT 9:46 PM CDT
Moon 6:52 PM CDT (9/17) 5:24 AM CDT (9/17)
Length of Visible Light 13h 29m
Length of Day
12h 27m
Waxing Gibbous, 96% of the Moon is Illuminated
Sep 17
Waxing Gibbous
Sep 19
Full
Sep 26
Last Quarter
Oct 4
New
Oct 11
First Quarter

Hourly Weather History & Observations

Time (CDT) Temp. Heat Index Dew Point Humidity Pressure Visibility Wind Dir Wind Speed Gust Speed Precip Events Conditions
12:15 AM 62.6 °F - 53.6 °F 72% 29.82 in 10.0 mi SSE 12.7 mph 20.7 mph N/A   Clear
12:35 AM 62.6 °F - 53.6 °F 72% 29.81 in 10.0 mi SSE 13.8 mph 21.9 mph N/A   Clear
12:55 AM 62.6 °F - 53.6 °F 72% 29.81 in 10.0 mi SSE 11.5 mph - N/A   Clear
1:15 AM 60.8 °F - 53.6 °F 77% 29.80 in 10.0 mi SSE 9.2 mph - N/A   Clear
1:35 AM 62.6 °F - 53.6 °F 72% 29.80 in 10.0 mi SSE 10.4 mph - N/A   Clear
1:55 AM 60.8 °F - 53.6 °F 77% 29.79 in 10.0 mi South 11.5 mph - N/A   Clear
2:15 AM 60.8 °F - 53.6 °F 77% 29.79 in 10.0 mi SSE 10.4 mph - N/A   Clear
2:35 AM 60.8 °F - 53.6 °F 77% 29.78 in 10.0 mi SSE 12.7 mph - N/A   Clear
2:55 AM 59.0 °F - 53.6 °F 82% 29.78 in 10.0 mi South 8.1 mph - N/A   Clear
3:15 AM 59.0 °F - 51.8 °F 77% 29.77 in 10.0 mi South 9.2 mph - N/A   Clear
3:35 AM 59.0 °F - 51.8 °F 77% 29.77 in 10.0 mi SSE 6.9 mph - N/A   Clear
3:55 AM 59.0 °F - 51.8 °F 77% 29.77 in 10.0 mi South 9.2 mph - N/A   Clear
4:15 AM 59.0 °F - 51.8 °F 77% 29.76 in 10.0 mi South 10.4 mph - N/A   Clear
4:35 AM 57.2 °F - 51.8 °F 82% 29.76 in 10.0 mi South 6.9 mph - N/A   Clear
4:55 AM 57.2 °F - 51.8 °F 82% 29.76 in 10.0 mi SSE 6.9 mph - N/A   Clear
5:15 AM 57.2 °F - 51.8 °F 82% 29.75 in 10.0 mi South 6.9 mph - N/A   Clear
5:35 AM 55.4 °F - 51.8 °F 88% 29.75 in 10.0 mi South 8.1 mph - N/A   Clear
5:55 AM 55.4 °F - 51.8 °F 88% 29.74 in 10.0 mi SSE 9.2 mph - N/A   Clear
6:15 AM 55.4 °F - 51.8 °F 88% 29.74 in 10.0 mi SSE 6.9 mph - N/A   Clear
6:35 AM 55.4 °F - 51.8 °F 88% 29.74 in 10.0 mi SE 5.8 mph - N/A   Clear
6:55 AM 55.4 °F - 50.0 °F 82% 29.74 in 10.0 mi South 5.8 mph - N/A   Clear
7:15 AM 55.4 °F - 51.8 °F 88% 29.74 in 10.0 mi SSE 5.8 mph - N/A   Clear
7:35 AM 53.6 °F - 50.0 °F 88% 29.73 in 10.0 mi SSE 4.6 mph - N/A   Clear
7:55 AM 53.6 °F - 50.0 °F 88% 29.74 in 10.0 mi SE 6.9 mph - N/A   Clear
8:15 AM 55.4 °F - 51.8 °F 88% 29.74 in 10.0 mi Calm Calm - N/A   Clear
8:35 AM 57.2 °F - 53.6 °F 88% 29.74 in 10.0 mi South 8.1 mph - N/A   Clear
8:55 AM 59.0 °F - 53.6 °F 82% 29.74 in 10.0 mi South 5.8 mph - N/A   Clear
9:15 AM 59.0 °F - 53.6 °F 82% 29.74 in 10.0 mi South 4.6 mph - N/A   Clear
9:35 AM 62.6 °F - 53.6 °F 72% 29.74 in 10.0 mi South 3.5 mph - N/A   Clear
9:55 AM 62.6 °F - 53.6 °F 72% 29.73 in 10.0 mi SSW 6.9 mph - N/A   Clear
10:15 AM 66.2 °F - 53.6 °F 64% 29.73 in 10.0 mi SW 6.9 mph - N/A   Clear
10:35 AM 66.2 °F - 55.4 °F 68% 29.73 in 10.0 mi SW 8.1 mph - N/A   Clear
10:55 AM 68.0 °F - 55.4 °F 64% 29.73 in 10.0 mi SW 5.8 mph - N/A   Clear
11:15 AM 69.8 °F - 55.4 °F 60% 29.72 in 10.0 mi SSW 4.6 mph - N/A   Clear
11:35 AM 71.6 °F - 55.4 °F 57% 29.72 in 10.0 mi SSW 5.8 mph - N/A   Clear
11:55 AM 73.4 °F - 55.4 °F 53% 29.72 in 10.0 mi SW 6.9 mph - N/A   Clear
12:15 PM 75.2 °F - 55.4 °F 50% 29.71 in 10.0 mi SSW 4.6 mph - N/A   Clear
12:35 PM 77.0 °F - 55.4 °F 47% 29.70 in 10.0 mi SW 3.5 mph - N/A   Clear
12:55 PM 77.0 °F - 55.4 °F 47% 29.70 in 10.0 mi WSW 3.5 mph - N/A   Clear
1:15 PM 78.8 °F - 55.4 °F 44% 29.69 in 10.0 mi SSE 4.6 mph - N/A   Clear
1:35 PM 80.6 °F 80.8 °F 57.2 °F 45% 29.69 in 10.0 mi South 5.8 mph - N/A   Clear
1:55 PM 82.4 °F 81.7 °F 55.4 °F 39% 29.68 in 10.0 mi South 6.9 mph - N/A   Clear
2:15 PM 82.4 °F 81.7 °F 55.4 °F 39% 29.68 in 10.0 mi SSE 8.1 mph - N/A   Clear
2:35 PM 84.2 °F 83.5 °F 57.2 °F 40% 29.68 in 10.0 mi WSW 5.8 mph - N/A   Clear
2:55 PM 84.2 °F 83.0 °F 55.4 °F 37% 29.67 in 10.0 mi SSW 8.1 mph - N/A   Clear
3:15 PM 84.2 °F 83.0 °F 55.4 °F 37% 29.67 in 10.0 mi WSW 8.1 mph - N/A   Clear
3:35 PM 86.0 °F 84.5 °F 55.4 °F 35% 29.67 in 10.0 mi SSW 6.9 mph - N/A   Clear
3:55 PM 86.0 °F 84.5 °F 55.4 °F 35% 29.66 in 10.0 mi WSW 4.6 mph - N/A   Clear
4:15 PM 86.0 °F 84.5 °F 55.4 °F 35% 29.65 in 10.0 mi WSW 4.6 mph - N/A   Clear
4:35 PM 86.0 °F 84.5 °F 55.4 °F 35% 29.64 in 10.0 mi South 6.9 mph - N/A   Clear
4:55 PM 86.0 °F 84.5 °F 55.4 °F 35% 29.63 in 10.0 mi SSW 6.9 mph - N/A   Clear
5:15 PM 87.8 °F 86.1 °F 55.4 °F 33% 29.63 in 10.0 mi South 4.6 mph - N/A   Clear
5:35 PM 86.0 °F 84.9 °F 57.2 °F 37% 29.63 in 10.0 mi SE 5.8 mph - N/A   Clear
5:55 PM 86.0 °F 84.9 °F 57.2 °F 37% 29.63 in 10.0 mi ESE 4.6 mph - N/A   Clear
6:15 PM 84.2 °F 83.5 °F 57.2 °F 40% 29.63 in 10.0 mi SSE 4.6 mph - N/A   Clear
6:35 PM 82.4 °F 82.5 °F 59.0 °F 45% 29.63 in 7.0 mi SE 5.8 mph - N/A   Clear
6:55 PM 80.6 °F 81.5 °F 60.8 °F 51% 29.62 in 10.0 mi ESE 6.9 mph - N/A   Clear
7:15 PM 80.6 °F 81.5 °F 60.8 °F 51% 29.63 in 10.0 mi SE 8.1 mph - N/A   Clear
7:35 PM 77.0 °F - 59.0 °F 54% 29.62 in 10.0 mi ESE 9.2 mph - N/A   Clear
7:55 PM 77.0 °F - 60.8 °F 57% 29.62 in 10.0 mi SE 6.9 mph - N/A   Clear
8:15 PM 77.0 °F - 59.0 °F 54% 29.62 in 10.0 mi SE 10.4 mph - N/A   Clear
8:35 PM 73.4 °F - 60.8 °F 65% 29.62 in 10.0 mi Calm Calm - N/A   Clear
8:55 PM 73.4 °F - 59.0 °F 61% 29.61 in 10.0 mi ESE 5.8 mph - N/A   Clear
9:15 PM 71.6 °F - 59.0 °F 64% 29.60 in 10.0 mi SE 10.4 mph - N/A   Clear
9:35 PM 71.6 °F - 59.0 °F 64% 29.60 in 10.0 mi East 9.2 mph - N/A   Clear
9:55 PM 71.6 °F - 59.0 °F 64% 29.59 in 10.0 mi East 11.5 mph - N/A   Unknown
10:15 PM 68.0 °F - 59.0 °F 73% 29.60 in 10.0 mi ESE 9.2 mph - N/A   Clear
10:35 PM 68.0 °F - 60.8 °F 78% 29.61 in 10.0 mi SE 11.5 mph - N/A   Clear
11:15 PM 73.4 °F - 60.8 °F 65% 29.61 in 10.0 mi SE 10.4 mph - N/A   Clear
11:35 PM 73.4 °F - 60.8 °F 65% 29.66 in 10.0 mi SSW 15.0 mph 19.6 mph N/A   Partly Cloudy
11:55 PM 71.6 °F - 59.0 °F 64% 29.67 in 10.0 mi SW 15.0 mph 25.3 mph N/A   Partly Cloudy